Flag Weather past 2 weeks in Eidsvoll, Norway

Now
39 °F

Passing clouds.


Feels Like: 34 °F
Forecast: 30 / 33 °F
Wind: 8 mph from Southeast

Location: Oslo Gardermoen Airport

Current Time: Nov 23, 2014 at 6:24:27 PM

Latest Report: Nov 23, 2014 at 5:50 PM


Visibility: 4 mi

Pressure: 30.07 "Hg

Humidity: 100%

Dew point: 39 °F

Location of EidsvollLocation

Historic Weather in Eidsvoll — Graph

°F

Eidsvoll temperature yesterday

Maximum temperature yesterday: 34 °F (at 12:20 AM)
Minimum temperature yesterday: 32 °F (at 12:50 AM)
Average temperature yesterday: 32 °F

Past Weeks' High & Low Weather Summary

 TemperatureHumidityPressure
High46 °F (Nov 9, 9:20 AM)100% (Nov 8, 4:20 PM)30.48 "Hg (Nov 8, 4:20 PM)
Low32 °F (Nov 20, 3:20 AM)75% (Nov 17, 11:20 AM)29.65 "Hg (Nov 10, 5:50 PM)
Average38 °F93%30.15 "Hg
* Reported Nov 8 4:20 PM — Nov 23 4:50 PM, Eidsvoll, Weather by CustomWeather, © 2014

Note: Actual official high and low records may vary slightly from our data, if they occured in-between our weather recording intervals... More about our weather records

Advertising

Eidsvoll weather history for previous 24 hours

 ConditionsComfort  
Time TempWeatherWind HumidityBarometerVisibility
4:50 PM
Nov 23
39 °FDrizzle. Fog.8 mph100%30.09 "Hg3 mi
4:20 PM39 °FPassing clouds.9 mph93%30.12 "Hg3 mi
3:50 PM39 °FDrizzle. Mostly cloudy.7 mph93%30.12 "Hg3 mi
3:20 PM39 °FDrizzle. Low clouds.8 mph93%30.12 "Hg3 mi
2:50 PM39 °FLight rain. Fog.7 mph93%30.15 "Hg2 mi
2:20 PM39 °FLight rain. Fog.8 mph93%30.18 "Hg2 mi
1:50 PM39 °FLight rain. Fog.7 mph93%30.18 "Hg1 mi
1:20 PM39 °FLight rain. Fog.6 mph93%30.18 "Hg3 mi
12:50 PM37 °FFog.6 mph100%30.18 "Hg2 mi
12:20 PM37 °FLight rain. Fog.6 mph100%30.21 "Hg2 mi
11:50 AM37 °FLight rain. Fog.8 mph100%30.21 "Hg2 mi
11:20 AM37 °FLight rain. Fog.7 mph100%30.24 "Hg2 mi
10:50 AM37 °FLight rain. Fog.7 mph100%30.24 "Hg2 mi
10:20 AM37 °FLight rain. Fog.6 mph93%30.24 "Hg1 mi
9:50 AM36 °FLight rain. Fog.5 mph100%30.24 "Hg1 mi
9:20 AM36 °FDrizzle. Fog.5 mph100%30.24 "Hg2 mi
8:50 AM36 °FDrizzle. Fog.3 mph100%30.24 "Hg2 mi
8:20 AM36 °FSprinkles. Low clouds.3 mph100%30.24 "Hg4 mi
7:50 AM36 °FDrizzle. Low clouds.3 mph93%30.24 "HgN/A
7:20 AM36 °FDrizzle. Low clouds.5 mph93%30.24 "HgN/A
6:50 AM36 °FPassing clouds.3 mph93%30.24 "HgN/A
6:20 AM36 °FPassing clouds.5 mph93%30.24 "HgN/A
5:50 AM34 °FPartly cloudy.3 mph100%30.24 "HgN/A
5:20 AM34 °FLight rain. Passing clouds.2 mph100%30.24 "HgN/A
4:50 AM34 °FLight rain. Low clouds.3 mph100%30.24 "HgN/A
4:20 AM34 °FLight rain. Partly cloudy.3 mph100%30.24 "HgN/A
3:50 AM34 °FLight rain. Partly cloudy.5 mph100%30.24 "HgN/A
3:20 AM34 °FLight rain. Partly cloudy.3 mph93%30.27 "HgN/A
2:50 AM34 °FLight rain. Partly cloudy.1 mph93%30.27 "HgN/A
2:20 AM34 °FLight rain. Partly cloudy.2 mph93%30.27 "HgN/A
1:50 AM34 °FLight rain. Mostly cloudy.2 mph93%30.27 "HgN/A
1:20 AM32 °FPassing clouds.2 mph100%30.27 "HgN/A
12:50 AM32 °FLow clouds.2 mph93%30.27 "HgN/A
12:20 AM32 °FLow clouds.No wind93%30.27 "HgN/A
11:50 PM
Nov 22
32 °FLow clouds.2 mph93%30.27 "HgN/A
11:20 PM32 °FLow clouds.2 mph93%30.27 "HgN/A
10:50 PM32 °FLow clouds.2 mph93%30.27 "HgN/A
10:20 PM32 °FLow clouds.2 mph93%30.27 "HgN/A
9:50 PM32 °FLow clouds.3 mph93%30.27 "HgN/A
9:20 PM32 °FPassing clouds.2 mph93%30.27 "HgN/A
8:50 PM32 °FPartly cloudy.3 mph93%30.27 "HgN/A
8:20 PM32 °FPartly cloudy.2 mph93%30.27 "HgN/A
7:50 PM32 °FPassing clouds.3 mph93%30.27 "HgN/A
7:20 PM32 °FPartly cloudy.2 mph93%30.27 "HgN/A
6:50 PM32 °FPartly cloudy.2 mph93%30.27 "HgN/A
6:20 PM32 °FPassing clouds.2 mph93%30.27 "HgN/A
Weather by CustomWeather, © 2014

See weather overviewHow to use our weather pages